Time,TemperatureF,DewpointF,PressureIn,WindDirection,WindDirectionDegrees,WindSpeedMPH,WindSpeedGustMPH,Humidity,HourlyPrecipIn,Conditions,Clouds,dailyrainin,SolarRadiationWatts/m^2,SoftwareType,DateUTC
2013-01-01 00:02:00,32.0,17.0,-100.00,SSE,166,1.0,2.0,54,-99.99,,,-99.99,0.000000,,2013-01-01 08:02:00,
2013-01-01 00:11:00,32.0,16.0,-100.00,SSW,193,0.0,3.0,52,-99.99,,,-99.99,0.000000,,2013-01-01 08:11:00,
2013-01-01 00:22:00,32.0,17.0,-100.00,South,190,1.0,3.0,54,-99.99,,,-99.99,0.000000,,2013-01-01 08:22:00,
2013-01-01 00:32:00,32.0,17.0,-100.00,SW,214,0.0,1.0,53,-99.99,,,-99.99,0.000000,,2013-01-01 08:32:00,
2013-01-01 00:42:00,32.0,17.0,-100.00,SSW,196,2.0,5.0,54,-99.99,,,-99.99,0.000000,,2013-01-01 08:42:00,
2013-01-01 00:53:00,32.0,17.0,-100.00,SSW,192,3.0,5.0,53,-99.99,,,-99.99,0.000000,,2013-01-01 08:53:00,
2013-01-01 01:02:00,33.0,17.0,-100.00,South,191,2.0,4.0,51,-99.99,,,-99.99,0.000000,,2013-01-01 09:02:00,
2013-01-01 01:11:00,32.0,17.0,-100.00,South,189,2.0,3.0,52,-99.99,,,-99.99,0.000000,,2013-01-01 09:11:00,
2013-01-01 01:22:00,32.0,17.0,-100.00,SSW,200,2.0,3.0,53,-99.99,,,-99.99,0.000000,,2013-01-01 09:22:00,
2013-01-01 01:32:00,32.0,17.0,-100.00,SSW,200,2.0,3.0,53,-99.99,,,-99.99,0.000000,,2013-01-01 09:32:00,
2013-01-01 01:42:00,31.0,17.0,-100.00,SW,225,1.0,3.0,56,-99.99,,,-99.99,0.000000,,2013-01-01 09:42:00,
2013-01-01 01:52:00,31.0,17.0,-100.00,West,268,2.0,3.0,57,-99.99,,,-99.99,0.000000,,2013-01-01 09:52:00,
2013-01-01 02:02:00,31.0,17.0,-100.00,West,268,2.0,3.0,57,-99.99,,,-99.99,0.000000,,2013-01-01 10:02:00,
2013-01-01 02:12:00,31.0,18.0,-100.00,West,275,1.0,2.0,58,-99.99,,,-99.99,0.000000,,2013-01-01 10:12:00,
2013-01-01 02:22:00,31.0,18.0,-100.00,North,-999,0.0,0.0,58,-99.99,,,-99.99,0.000000,,2013-01-01 10:22:00,
2013-01-01 02:32:00,31.0,18.0,-100.00,North,-999,0.0,0.0,58,-99.99,,,-99.99,0.000000,,2013-01-01 10:32:00,
2013-01-01 02:42:00,30.0,18.0,-100.00,SE,128,1.0,1.0,60,-99.99,,,-99.99,0.000000,,2013-01-01 10:42:00,
2013-01-01 02:52:00,30.0,18.0,-100.00,SE,143,1.0,2.0,61,-99.99,,,-99.99,0.000000,,2013-01-01 10:52:00,
2013-01-01 03:02:00,30.0,18.0,-100.00,SE,143,1.0,2.0,61,-99.99,,,-99.99,0.000000,,2013-01-01 11:02:00,
2013-01-01 03:12:00,30.0,18.0,-100.00,SSW,196,1.0,2.0,60,-99.99,,,-99.99,0.000000,,2013-01-01 11:12:00,
2013-01-01 03:22:00,30.0,18.0,-100.00,SW,218,0.0,2.0,60,-99.99,,,-99.99,0.000000,,2013-01-01 11:22:00,
2013-01-01 03:32:00,30.0,18.0,-100.00,SW,218,0.0,2.0,60,-99.99,,,-99.99,0.000000,,2013-01-01 11:32:00,
2013-01-01 03:42:00,30.0,18.0,-100.00,SSW,200,2.0,3.0,59,-99.99,,,-99.99,0.000000,,2013-01-01 11:42:00,
2013-01-01 03:52:00,30.0,18.0,-100.00,SSW,200,2.0,3.0,59,-99.99,,,-99.99,0.000000,,2013-01-01 11:52:00,
2013-01-01 04:02:00,31.0,17.0,-100.00,West,264,3.0,4.0,54,-99.99,,,-99.99,0.000000,,2013-01-01 12:02:00,
2013-01-01 04:12:00,32.0,16.0,-100.00,West,277,2.0,3.0,52,-99.99,,,-99.99,0.000000,,2013-01-01 12:12:00,
2013-01-01 04:22:00,32.0,16.0,-100.00,WNW,282,2.0,3.0,52,-99.99,,,-99.99,0.000000,,2013-01-01 12:22:00,
2013-01-01 04:32:00,32.0,16.0,-100.00,WNW,282,2.0,3.0,52,-99.99,,,-99.99,0.000000,,2013-01-01 12:32:00,
2013-01-01 04:42:00,32.0,16.0,-100.00,West,277,3.0,4.0,52,-99.99,,,-99.99,0.000000,,2013-01-01 12:42:00,
2013-01-01 04:52:00,32.0,16.0,-100.00,West,277,3.0,4.0,52,-99.99,,,-99.99,0.000000,,2013-01-01 12:52:00,
2013-01-01 05:02:00,32.0,16.0,-100.00,West,273,3.0,4.0,52,-99.99,,,-99.99,0.000000,,2013-01-01 13:02:00,
2013-01-01 05:12:00,32.0,16.0,-100.00,West,273,3.0,5.0,51,-99.99,,,-99.99,0.000000,,2013-01-01 13:12:00,
2013-01-01 05:22:00,32.0,16.0,-100.00,West,278,2.0,4.0,51,-99.99,,,-99.99,0.000000,,2013-01-01 13:22:00,
2013-01-01 05:32:00,32.0,16.0,-100.00,West,261,2.0,3.0,51,-99.99,,,-99.99,0.000000,,2013-01-01 13:32:00,
2013-01-01 05:42:00,31.0,16.0,-100.00,WSW,249,3.0,4.0,53,-99.99,,,-99.99,0.000000,,2013-01-01 13:42:00,
2013-01-01 05:52:00,31.0,16.0,-100.00,SW,235,2.0,3.0,54,-99.99,,,-99.99,0.000000,,2013-01-01 13:52:00,
2013-01-01 06:02:00,31.0,16.0,-100.00,SW,228,1.0,3.0,54,-99.99,,,-99.99,0.000000,,2013-01-01 14:02:00,
2013-01-01 06:12:00,31.0,16.0,-100.00,SW,226,2.0,3.0,55,-99.99,,,-99.99,0.000000,,2013-01-01 14:12:00,
2013-01-01 06:22:00,30.0,16.0,-100.00,SW,222,2.0,4.0,55,-99.99,,,-99.99,0.000000,,2013-01-01 14:22:00,
2013-01-01 06:32:00,30.0,16.0,-100.00,West,271,2.0,4.0,54,-99.99,,,-99.99,0.000000,,2013-01-01 14:32:00,
2013-01-01 06:42:00,31.0,16.0,-100.00,NW,309,1.0,3.0,53,-99.99,,,-99.99,0.000000,,2013-01-01 14:42:00,
2013-01-01 06:53:00,32.0,15.0,-100.00,NW,317,1.0,4.0,50,-99.99,,,-99.99,0.000000,,2013-01-01 14:53:00,
2013-01-01 07:02:00,31.0,16.0,-100.00,WNW,283,1.0,2.0,52,-99.99,,,-99.99,0.000000,,2013-01-01 15:02:00,
2013-01-01 07:12:00,31.0,16.0,-100.00,WNW,287,1.0,4.0,54,-99.99,,,-99.99,0.000000,,2013-01-01 15:12:00,
2013-01-01 07:22:00,31.0,15.0,-100.00,WNW,295,1.0,5.0,53,-99.99,,,-99.99,0.000000,,2013-01-01 15:22:00,
2013-01-01 07:33:00,30.0,15.0,-100.00,WNW,303,1.0,5.0,53,-99.99,,,-99.99,1.000000,,2013-01-01 15:33:00,
2013-01-01 07:42:00,31.0,15.0,-100.00,West,271,2.0,3.0,52,-99.99,,,-99.99,7.000000,,2013-01-01 15:42:00,
2013-01-01 07:53:00,30.0,15.0,-100.00,WSW,248,1.0,3.0,53,-99.99,,,-99.99,14.000000,,2013-01-01 15:53:00,
2013-01-01 08:02:00,30.0,15.0,-100.00,WSW,248,1.0,3.0,53,-99.99,,,-99.99,14.000000,,2013-01-01 16:02:00,
2013-01-01 08:12:00,31.0,16.0,-100.00,WSW,237,1.0,3.0,53,-99.99,,,-99.99,48.000000,,2013-01-01 16:12:00,
2013-01-01 08:22:00,32.0,16.0,-100.00,WSW,256,2.0,3.0,50,-99.99,,,-99.99,76.000000,,2013-01-01 16:22:00,
2013-01-01 08:32:00,33.0,16.0,-100.00,NNW,330,2.0,4.0,49,-99.99,,,-99.99,64.000000,,2013-01-01 16:32:00,
2013-01-01 08:42:00,34.0,15.0,-100.00,NW,317,2.0,5.0,46,-99.99,,,-99.99,64.000000,,2013-01-01 16:42:00,
2013-01-01 08:52:00,34.0,15.0,-100.00,ESE,102,1.0,2.0,47,-99.99,,,-99.99,71.000000,,2013-01-01 16:52:00,
2013-01-01 09:02:00,34.0,15.0,-100.00,NE,39,0.0,3.0,46,-99.99,,,-99.99,91.000000,,2013-01-01 17:02:00,
2013-01-01 09:12:00,34.0,16.0,-100.00,East,86,1.0,2.0,46,-99.99,,,-99.99,103.000000,,2013-01-01 17:12:00,
2013-01-01 09:22:00,34.0,15.0,-100.00,North,8,1.0,3.0,45,-99.99,,,-99.99,303.000000,,2013-01-01 17:22:00,
2013-01-01 09:33:00,34.0,15.0,-100.00,North,8,1.0,3.0,45,-99.99,,,-99.99,303.000000,,2013-01-01 17:33:00,
2013-01-01 09:42:00,36.0,14.0,-100.00,NE,44,1.0,3.0,40,-99.99,,,-99.99,344.000000,,2013-01-01 17:42:00,
2013-01-01 09:52:00,36.0,14.0,-100.00,North,10,2.0,5.0,40,-99.99,,,-99.99,367.000000,,2013-01-01 17:52:00,
2013-01-01 10:03:00,37.0,13.0,-100.00,North,8,2.0,5.0,38,-99.99,,,-99.99,399.000000,,2013-01-01 18:03:00,
2013-01-01 10:12:00,37.0,13.0,-100.00,NNW,335,4.0,7.0,36,-99.99,,,-99.99,423.000000,,2013-01-01 18:12:00,
2013-01-01 10:22:00,38.0,13.0,-100.00,NW,321,2.0,6.0,36,-99.99,,,-99.99,444.000000,,2013-01-01 18:22:00,
2013-01-01 10:33:00,38.0,13.0,-100.00,NNW,336,3.0,7.0,35,-99.99,,,-99.99,465.000000,,2013-01-01 18:33:00,
2013-01-01 10:42:00,38.0,13.0,-100.00,NNW,333,4.0,7.0,35,-99.99,,,-99.99,486.000000,,2013-01-01 18:42:00,
2013-01-01 10:52:00,39.0,13.0,-100.00,NNW,330,4.0,8.0,34,-99.99,,,-99.99,506.000000,,2013-01-01 18:52:00,
2013-01-01 11:02:00,39.0,13.0,-100.00,NNW,339,4.0,8.0,34,-99.99,,,-99.99,526.000000,,2013-01-01 19:02:00,
2013-01-01 11:12:00,39.0,13.0,-100.00,NW,325,5.0,10.0,34,-99.99,,,-99.99,541.000000,,2013-01-01 19:12:00,
2013-01-01 11:22:00,40.0,13.0,-100.00,NNW,340,3.0,9.0,32,-99.99,,,-99.99,554.000000,,2013-01-01 19:22:00,
2013-01-01 11:32:00,40.0,13.0,-100.00,NNW,340,3.0,9.0,32,-99.99,,,-99.99,554.000000,,2013-01-01 19:32:00,
2013-01-01 11:42:00,41.0,12.0,-100.00,NNW,347,5.0,12.0,30,-99.99,,,-99.99,579.000000,,2013-01-01 19:42:00,
2013-01-01 11:52:00,41.0,11.0,-100.00,North,353,5.0,13.0,29,-99.99,,,-99.99,590.000000,,2013-01-01 19:52:00,
2013-01-01 12:02:00,41.0,11.0,-100.00,NNW,339,5.0,10.0,29,-99.99,,,-99.99,595.000000,,2013-01-01 20:02:00,
2013-01-01 12:12:00,41.0,11.0,-100.00,North,351,6.0,11.0,28,-99.99,,,-99.99,600.000000,,2013-01-01 20:12:00,
2013-01-01 12:22:00,41.0,11.0,-100.00,NNW,343,5.0,11.0,29,-99.99,,,-99.99,603.000000,,2013-01-01 20:22:00,
2013-01-01 12:32:00,42.0,12.0,-100.00,NNW,346,4.0,11.0,29,-99.99,,,-99.99,606.000000,,2013-01-01 20:32:00,
2013-01-01 12:42:00,42.0,12.0,-100.00,North,360,4.0,11.0,28,-99.99,,,-99.99,603.000000,,2013-01-01 20:42:00,
2013-01-01 12:52:00,42.0,11.0,-100.00,North,350,5.0,12.0,28,-99.99,,,-99.99,599.000000,,2013-01-01 20:52:00,
2013-01-01 13:03:00,42.0,11.0,-100.00,North,360,6.0,13.0,27,-99.99,,,-99.99,595.000000,,2013-01-01 21:03:00,
2013-01-01 13:12:00,43.0,11.0,-100.00,North,352,6.0,13.0,27,-99.99,,,-99.99,592.000000,,2013-01-01 21:12:00,
2013-01-01 13:22:00,43.0,11.0,-100.00,North,353,5.0,12.0,27,-99.99,,,-99.99,583.000000,,2013-01-01 21:22:00,
2013-01-01 13:32:00,43.0,11.0,-100.00,North,353,5.0,12.0,27,-99.99,,,-99.99,583.000000,,2013-01-01 21:32:00,
2013-01-01 13:42:00,43.0,11.0,-100.00,North,354,4.0,11.0,26,-99.99,,,-99.99,564.000000,,2013-01-01 21:42:00,
2013-01-01 13:52:00,43.0,11.0,-100.00,NNW,329,5.0,10.0,26,-99.99,,,-99.99,551.000000,,2013-01-01 21:52:00,
2013-01-01 14:02:00,44.0,11.0,-100.00,NNW,339,5.0,10.0,26,-99.99,,,-99.99,535.000000,,2013-01-01 22:02:00,
2013-01-01 14:12:00,44.0,11.0,-100.00,NNW,341,4.0,10.0,26,-99.99,,,-99.99,518.000000,,2013-01-01 22:12:00,
2013-01-01 14:22:00,44.0,11.0,-100.00,NNW,334,4.0,8.0,25,-99.99,,,-99.99,498.000000,,2013-01-01 22:22:00,
2013-01-01 14:32:00,45.0,11.0,-100.00,North,2,4.0,10.0,25,-99.99,,,-99.99,479.000000,,2013-01-01 22:32:00,
2013-01-01 14:42:00,45.0,11.0,-100.00,NNW,339,4.0,8.0,25,-99.99,,,-99.99,458.000000,,2013-01-01 22:42:00,
2013-01-01 14:52:00,46.0,11.0,-100.00,North,3,4.0,8.0,24,-99.99,,,-99.99,434.000000,,2013-01-01 22:52:00,
2013-01-01 15:02:00,46.0,11.0,-100.00,North,357,3.0,9.0,24,-99.99,,,-99.99,408.000000,,2013-01-01 23:02:00,
2013-01-01 15:12:00,46.0,10.0,-100.00,North,4,5.0,12.0,23,-99.99,,,-99.99,381.000000,,2013-01-01 23:12:00,
2013-01-01 15:22:00,46.0,10.0,-100.00,NNE,15,4.0,11.0,23,-99.99,,,-99.99,354.000000,,2013-01-01 23:22:00,
2013-01-01 15:32:00,46.0,10.0,-100.00,NNE,19,5.0,12.0,23,-99.99,,,-99.99,325.000000,,2013-01-01 23:32:00,
2013-01-01 15:42:00,46.0,10.0,-100.00,North,0,6.0,13.0,23,-99.99,,,-99.99,296.000000,,2013-01-01 23:42:00,
2013-01-01 15:50:00,45.0,11.0,-100.00,North,6,4.0,10.0,24,-99.99,,,-99.99,142.000000,,2013-01-01 23:50:00,
2013-01-01 15:52:00,46.0,11.0,-100.00,North,10,5.0,12.0,24,-99.99,,,-99.99,267.000000,,2013-01-01 23:52:00,
2013-01-01 16:02:00,46.0,11.0,-100.00,North,6,5.0,11.0,24,-99.99,,,-99.99,235.000000,,2013-01-02 00:02:00,
2013-01-01 16:12:00,46.0,11.0,-100.00,NNE,16,5.0,12.0,24,-99.99,,,-99.99,204.000000,,2013-01-02 00:12:00,
2013-01-01 16:22:00,46.0,11.0,-100.00,NNE,17,4.0,9.0,24,-99.99,,,-99.99,174.000000,,2013-01-02 00:22:00,
2013-01-01 16:32:00,46.0,11.0,-100.00,NNE,17,4.0,9.0,24,-99.99,,,-99.99,174.000000,,2013-01-02 00:32:00,
2013-01-01 16:42:00,45.0,11.0,-100.00,North,6,4.0,10.0,24,-99.99,,,-99.99,142.000000,,2013-01-02 00:42:00,
2013-01-01 17:22:00,44.0,11.0,-100.00,NNW,341,3.0,6.0,26,-99.99,,,-99.99,7.000000,,2013-01-02 01:22:00,
2013-01-01 17:32:00,44.0,11.0,-100.00,NNW,341,3.0,6.0,26,-99.99,,,-99.99,7.000000,,2013-01-02 01:32:00,
2013-01-01 17:42:00,43.0,12.0,-100.00,NW,325,2.0,3.0,27,-99.99,,,-99.99,2.000000,,2013-01-02 01:42:00,
2013-01-01 17:52:00,42.0,12.0,-100.00,NW,307,2.0,3.0,29,-99.99,,,-99.99,0.000000,,2013-01-02 01:52:00,
2013-01-01 18:02:00,42.0,12.0,-100.00,NW,307,2.0,3.0,29,-99.99,,,-99.99,0.000000,,2013-01-02 02:02:00,
2013-01-01 18:12:00,42.0,12.0,-100.00,NW,304,2.0,3.0,29,-99.99,,,-99.99,0.000000,,2013-01-02 02:12:00,
2013-01-01 18:20:00,39.0,13.0,-100.00,West,261,1.0,2.0,33,-99.99,,,-99.99,0.000000,,2013-01-02 02:20:00,
2013-01-01 18:22:00,41.0,12.0,-100.00,West,275,1.0,2.0,30,-99.99,,,-99.99,0.000000,,2013-01-02 02:22:00,
2013-01-01 18:32:00,39.0,12.0,-100.00,WSW,249,1.0,2.0,32,-99.99,,,-99.99,0.000000,,2013-01-02 02:32:00,
2013-01-01 18:42:00,39.0,12.0,-100.00,WSW,249,1.0,2.0,32,-99.99,,,-99.99,0.000000,,2013-01-02 02:42:00,
2013-01-01 18:52:00,40.0,12.0,-100.00,WSW,258,2.0,3.0,32,-99.99,,,-99.99,0.000000,,2013-01-02 02:52:00,
2013-01-01 19:02:00,40.0,12.0,-100.00,West,263,2.0,3.0,31,-99.99,,,-99.99,0.000000,,2013-01-02 03:02:00,
2013-01-01 19:11:00,39.0,13.0,-100.00,West,261,1.0,2.0,33,-99.99,,,-99.99,0.000000,,2013-01-02 03:11:00,
2013-01-01 19:42:00,37.0,14.0,-100.00,East,100,1.0,3.0,38,-99.99,,,-99.99,0.000000,,2013-01-02 03:42:00,
2013-01-01 19:52:00,37.0,14.0,-100.00,East,100,1.0,3.0,38,-99.99,,,-99.99,0.000000,,2013-01-02 03:52:00,
2013-01-01 20:00:00,37.0,14.0,-100.00,WNW,298,2.0,3.0,38,-99.99,,,-99.99,0.000000,,2013-01-02 04:00:00,
2013-01-01 20:02:00,36.0,14.0,-100.00,North,-999,0.0,0.0,41,-99.99,,,-99.99,0.000000,,2013-01-02 04:02:00,
2013-01-01 20:12:00,35.0,15.0,-100.00,WSW,253,0.0,1.0,43,-99.99,,,-99.99,0.000000,,2013-01-02 04:12:00,
2013-01-01 20:22:00,35.0,15.0,-100.00,NW,304,1.0,2.0,44,-99.99,,,-99.99,0.000000,,2013-01-02 04:22:00,
2013-01-01 20:32:00,35.0,15.0,-100.00,NW,304,1.0,2.0,44,-99.99,,,-99.99,0.000000,,2013-01-02 04:32:00,
2013-01-01 20:42:00,37.0,14.0,-100.00,WNW,298,2.0,3.0,38,-99.99,,,-99.99,0.000000,,2013-01-02 04:42:00,
2013-01-01 20:52:00,37.0,14.0,-100.00,WNW,298,2.0,3.0,38,-99.99,,,-99.99,0.000000,,2013-01-02 04:52:00,
2013-01-01 21:22:00,36.0,14.0,-100.00,WNW,290,1.0,2.0,39,-99.99,,,-99.99,0.000000,,2013-01-02 05:22:00,
2013-01-01 21:32:00,36.0,14.0,-100.00,WNW,290,1.0,2.0,39,-99.99,,,-99.99,0.000000,,2013-01-02 05:32:00,
2013-01-01 21:42:00,38.0,12.0,-100.00,North,8,3.0,6.0,34,-99.99,,,-99.99,0.000000,,2013-01-02 05:42:00,
2013-01-01 21:52:00,38.0,12.0,-100.00,NNE,12,3.0,7.0,33,-99.99,,,-99.99,0.000000,,2013-01-02 05:52:00,
2013-01-01 22:02:00,38.0,12.0,-100.00,NNE,12,3.0,7.0,33,-99.99,,,-99.99,0.000000,,2013-01-02 06:02:00,
2013-01-01 22:12:00,38.0,12.0,-100.00,NNW,342,1.0,6.0,34,-99.99,,,-99.99,0.000000,,2013-01-02 06:12:00,
2013-01-01 22:22:00,38.0,13.0,-100.00,WNW,291,2.0,4.0,35,-99.99,,,-99.99,0.000000,,2013-01-02 06:22:00,
2013-01-01 22:32:00,38.0,12.0,-100.00,West,270,2.0,3.0,35,-99.99,,,-99.99,0.000000,,2013-01-02 06:32:00,
2013-01-01 22:42:00,37.0,12.0,-100.00,West,262,2.0,3.0,35,-99.99,,,-99.99,0.000000,,2013-01-02 06:42:00,
2013-01-01 22:52:00,37.0,12.0,-100.00,West,260,1.0,2.0,36,-99.99,,,-99.99,0.000000,,2013-01-02 06:52:00,
2013-01-01 23:00:00,37.0,12.0,-100.00,West,270,1.0,4.0,36,-99.99,,,-99.99,0.000000,,2013-01-02 07:00:00,
2013-01-01 23:02:00,37.0,12.0,-100.00,West,260,1.0,2.0,36,-99.99,,,-99.99,0.000000,,2013-01-02 07:02:00,
2013-01-01 23:12:00,36.0,13.0,-100.00,West,264,2.0,5.0,37,-99.99,,,-99.99,0.000000,,2013-01-02 07:12:00,
2013-01-01 23:22:00,37.0,12.0,-100.00,West,276,3.0,4.0,36,-99.99,,,-99.99,0.000000,,2013-01-02 07:22:00,
2013-01-01 23:32:00,38.0,12.0,-100.00,West,276,3.0,5.0,35,-99.99,,,-99.99,0.000000,,2013-01-02 07:32:00,
2013-01-01 23:42:00,37.0,12.0,-100.00,West,278,2.0,4.0,36,-99.99,,,-99.99,0.000000,,2013-01-02 07:42:00,
2013-01-01 23:52:00,37.0,12.0,-100.00,West,270,1.0,4.0,36,-99.99,,,-99.99,0.000000,,2013-01-02 07:52:00,